Content
SEND FEEDBACK

Daily
Averages
Monthly
Summary
United States of America

BAYOU LA BATRE, ALABAMA


Home > North America > United States > Alabama
Elevation: 0 feet     Latitude: 30 23N     Longitude: 088 14W

WEATHER
 
SELECT A DAY
Number of Records: 201,012;   Date Range: 8/14/97 - 12/19/14
 
SHARE

PRINT THIS DATA

[ ← Previous Day ]
WEATHER ALMANAC - MARCH 7, 2014
[ Next Day → ]
[ °C ]   °F
Weather ElementAverageHighLow
Temperature48.6 °F57.9 °F (1:53 pm)44.1 °F (4:53 am)
Dewpoint42.8 °F46 °F (2:53 pm)39.9 °F (6:53 am)
Humidity81.6 %100 % (11:27 pm)56 % (1:53 pm)
Barometer30.06 in30.10 in (9:53 am)29.99 in (12:53 am)
Wind Speed5.2 mph11.5 mph (3:53 am)
Wind Gust19.6 mph (3:53 am)
Weather ElementAverage
Visibility8.8 mi
Wind DirectionESE (125.6 °)

Weather ElementTotal
Precipitation---
Heating Degree Days14 (Base 65)
Growing Degree Days1 (Base 50)
Averaged from 34 records on March 7, 2014
WEATHER CONDITIONS BREAKOUT
WIND DIRECTION BREAKOUT
WEATHER BY HOUR - MARCH 7, 2014
[ °C ]   °F
Local TimeTemperatureDewpointHumidityBarometerVisibilityWind DirectionWind SpeedGust SpeedPrecipitationEventsConditions
12:53 AM46.9 °F43.0 °F86 %29.99 in10.0 miNNW (340°)5.8 mphOvercast
1:53 AM46.0 °F43.0 °F89 %29.99 in10.0 miNorth (350°)9.2 mphOvercast
2:32 AM46.0 °F42.1 °F86 %29.99 in10.0 miNNW (340°)8.1 mphOvercast
2:53 AM46.0 °F42.1 °F86 %30.01 in10.0 miNW (310°)8.1 mphOvercast
3:53 AM45.0 °F42.1 °F90 %30.00 in10.0 miNorth (350°)11.5 mph19.6 mphOvercast
4:53 AM44.1 °F41.0 °F89 %30.02 in10.0 miNorth (360°)11.5 mphOvercast
5:53 AM44.1 °F41.0 °F89 %30.04 in10.0 miNorth (10°)6.9 mphOvercast
6:53 AM44.1 °F39.9 °F85 %30.06 in10.0 miNorth (350°)10.4 mphOvercast
7:32 AM44.1 °F39.9 °F85 %30.06 in10.0 miNorth (360°)10.4 mphOvercast
7:43 AM44.1 °F39.9 °F85 %30.06 in10.0 miNNE (20°)10.4 mphOvercast
7:53 AM46.0 °F41.0 °F83 %30.07 in10.0 miNorth (360°)6.9 mphMostly Cloudy
8:13 AM46.9 °F39.9 °F77 %30.07 in10.0 miNNE (20°)9.2 mphMostly Cloudy
8:53 AM46.9 °F39.9 °F77 %30.08 in10.0 miNNE (30°)9.2 mphOvercast
9:53 AM48.0 °F39.9 °F74 %30.10 in10.0 miNE (40°)9.2 mphMostly Cloudy
10:53 AM51.1 °F41.0 °F68 %30.09 in10.0 miNorth (10°)5.8 mphOvercast
11:39 AM55.0 °F42.1 °F62 %30.07 in10.0 miNE (50°)9.2 mphScattered Clouds
11:53 AM55.0 °F42.1 °F62 %30.08 in10.0 miNE (50°)3.5 mphPartly Cloudy
12:53 PM55.9 °F41.0 °F57 %30.07 in10.0 miCalmScattered Clouds
1:20 PM57.0 °F42.1 °F57 %30.05 in10.0 miCalmMostly Cloudy
1:53 PM57.9 °F42.1 °F56 %30.04 in10.0 miCalmScattered Clouds
2:53 PM57.9 °F46.0 °F65 %30.04 in10.0 miSSW (200°)10.4 mphPartly Cloudy
3:53 PM57.0 °F46.0 °F67 %30.04 in10.0 miSouth (180°)9.2 mphClear
4:53 PM55.0 °F46.0 °F72 %30.03 in10.0 miSSW (200°)4.6 mphClear
5:53 PM52.0 °F46.0 °F80 %30.05 in10.0 miSSW (200°)4.6 mphClear
6:53 PM48.9 °F46.0 °F90 %30.04 in10.0 miSE (140°)3.5 mphClear
7:53 PM48.9 °F46.0 °F90 %30.07 in10.0 miCalmClear
8:53 PM48.9 °F46.0 °F90 %30.08 in10.0 miCalmClear
9:53 PM46.0 °F45.0 °F96 %30.09 in9.0 miCalmClear
10:53 PM45.0 °F44.1 °F97 %30.09 in5.0 miCalmClear
11:08 PM45.0 °F44.1 °F97 %30.09 in1.8 miCalmClear
11:20 PM45.0 °F44.1 °F97 %30.09 in0.5 miCalmFogFog
11:27 PM44.1 °F44.1 °F100 %30.09 in2.0 miCalmClear
11:34 PM44.1 °F43.0 °F96 %30.09 in7.0 miCalmClear
11:53 PM44.1 °F43.0 °F96 %30.09 in4.0 miCalmClear
Hourly data recorded from KPQL, located miles away from Bayou La Batre, Alabama







STORIES FROM OUR PARTNERS